This is the latest recevied weather packets stored in our database for station/object KA0EGE. If no packets are shown the sender has not sent any weather packets the latest 10 day(s).
| Time | Temp. | Humidity | Pressure | Rain* | Wind** | Luminosity | Snow |
|---|---|---|---|---|---|---|---|
| 1777933291 | 23.33° C | 44% | 1017.9 hPa | 0 mm | - | 264 W/m² | - |
| 1777932988 | 23.89° C | 43% | 1017.9 hPa | 0 mm | - | 281 W/m² | - |
| 1777932685 | 23.89° C | 42% | 1018 hPa | 0 mm | - | 299 W/m² | - |
| 1777932382 | 23.89° C | 42% | 1017.8 hPa | 0 mm | - | 320 W/m² | - |
| 1777932080 | 23.89° C | 42% | 1017.9 hPa | 0 mm | - | 337 W/m² | - |
| 1777931775 | 24.44° C | 41% | 1018.1 hPa | 0 mm | - | 355 W/m² | - |
| 1777931473 | 24.44° C | 41% | 1018 hPa | 0 mm | - | 373 W/m² | - |
| 1777931169 | 24.44° C | 41% | 1017.9 hPa | 0 mm | - | 389 W/m² | - |
| 1777930865 | 24.44° C | 40% | 1018.1 hPa | 0 mm | - | 407 W/m² | - |
| 1777930562 | 24.44° C | 41% | 1018.1 hPa | 0 mm | - | 425 W/m² | - |
| 1777930259 | 23.89° C | 40% | 1017.9 hPa | 0 mm | - | 442 W/m² | - |
| 1777929955 | 24.44° C | 41% | 1017.8 hPa | 0 mm | - | 460 W/m² | - |
| 1777929652 | 24.44° C | 40% | 1018 hPa | 0 mm | - | 477 W/m² | - |
| 1777929349 | 24.44° C | 39% | 1017.9 hPa | 0 mm | - | 494 W/m² | - |
| 1777929046 | 25° C | 39% | 1017.8 hPa | 0 mm | - | 512 W/m² | - |
| 1777928743 | 25° C | 39% | 1017.7 hPa | 0 mm | - | 526 W/m² | - |
| 1777928439 | 25° C | 38% | 1017.8 hPa | 0 mm | - | 544 W/m² | - |
| 1777928137 | 25.56° C | 39% | 1018 hPa | 0 mm | - | 559 W/m² | - |
| 1777927835 | 25° C | 38% | 1017.9 hPa | 0 mm | - | 576 W/m² | - |
| 1777927533 | 25.56° C | 38% | 1018 hPa | 0 mm | - | 590 W/m² | - |
| 1777927232 | 25.56° C | 37% | 1018 hPa | 0 mm | - | 606 W/m² | - |
| 1777926929 | 25.56° C | 37% | 1017.9 hPa | 0 mm | - | 620 W/m² | - |
| 1777926627 | 25° C | 39% | 1017.9 hPa | 0 mm | - | 635 W/m² | - |
| 1777926322 | 25.56° C | 40% | 1017.8 hPa | 0 mm | - | 651 W/m² | - |
| 1777926019 | 25.56° C | 38% | 1018.1 hPa | 0 mm | - | 665 W/m² | - |
* Rain latest hour (hover to see other rain measurements)
** Current wind speed in m/s (hover to see current wind gust speed)